Wetbulb
41.33 34.46 32.51 32.63 36.67 39.82 39.45 38.31 36.44 40.17 43.26 41.93 41.47 42.54 45.13 47.78 44.44 43.92 45.84 47.69 52.39 53.97 55.06 56.45 58.62 58.51 57.40 57.16 57.46 58.59 59.34 59.64 60.20 59.69 59.51 59.55 59.22 59.36 58.89 59.27 59.89 60.56 59.92 60.42
38.90 33.78 38.68 39.32 39.06 38.37 38.65 37.81 37.04 41.03 44.04 42.52 42.15 41.41 44.51 45.86 45.33 46.00 47.93 46.32 51.87 52.63 52.89 56.02 57.25 57.33 56.99 57.23 56.71 56.97 58.97 59.28 59.44 59.51 59.34 58.97 59.25 59.08 59.61 59.08 59.16 60.26 59.47 59.28
36.73 39.66 44.00 40.60 38.48 36.85 36.67 35.90 37.71 37.92 41.72 43.83 42.00 39.46 41.96 44.62 45.38 45.35 47.91 48.98 50.63 53.29 52.90 54.65 56.29 56.28 56.18 56.78 56.43 56.67 58.07 58.33 58.40 58.55 58.56 57.52 58.19 57.88 57.42 57.78 58.08 59.51 58.78 58.63
39.25 43.28 41.33 39.94 38.00 39.88 35.56 40.09 39.37 39.59 38.33 32.15 42.23 31.18 40.22 42.59 43.57 45.16 45.41 45.99 47.58 53.67 54.61 54.95 56.09 55.93 55.62 56.07 56.89 56.75 57.31 57.65 57.92 58.29 57.76 57.09 55.91 55.28 56.74 57.22 58.05 58.97 58.26 57.63
36.66 39.37 39.79 37.64 38.85 42.26 38.85 44.47 41.42 40.11 35.93 33.91 38.34 33.54 38.55 41.01 41.08 43.65 44.56 44.38 47.97 53.95 54.58 54.19 55.64 56.17 56.29 56.45 56.45 56.59 57.05 57.50 57.76 57.91 57.65 57.02 56.17 56.55 56.80 57.38 57.29 57.82 57.48 56.92
38.67 44.01 42.47 40.67 43.35 43.88 44.55 41.61 40.63 39.27 36.28 28.24 36.50 35.36 34.42 37.15 42.38 44.30 46.39 45.72 48.17 53.48 54.91 54.83 55.73 56.68 56.12 56.35 56.69 56.13 56.21 56.80 57.42 57.50 57.55 56.70 56.00 55.73 55.39 55.75 55.22 55.99 56.13 55.91
33.40 37.19 42.02 44.78 39.87 43.08 41.61 37.25 30.56 29.49 27.69 27.67 39.22 35.84 38.07 42.69 44.68 46.46 46.80 47.26 47.78 54.15 54.44 54.17 53.33 55.02 55.70 55.80 55.88 55.82 55.68 56.04 57.15 57.06 56.99 56.57 55.49 54.95 54.65 54.59 55.33 55.39 55.05 55.15
26.75 26.61 36.44 43.19 40.09 37.91 38.28 37.55 30.80 26.15 26.81 29.89 39.30 32.44 37.04 45.39 47.89 47.78 47.97 46.81 48.59 53.61 54.42 54.32 54.37 54.57 55.74 55.78 55.42 55.74 55.48 55.74 56.53 57.08 56.66 56.46 55.88 54.29 53.96 54.59 55.16 54.84 55.72 55.89
28.65 31.58 39.04 42.07 43.22 41.15 36.66 35.18 39.71 32.82 34.76 30.38 35.02 38.73 44.46 45.45 45.22 46.24 46.06 47.15 49.48 53.05 53.87 54.63 55.23 55.01 55.40 55.54 55.22 55.44 55.54 55.96 56.57 56.84 57.03 55.88 55.36 54.96 54.01 53.51 54.47 54.85 54.34 56.19
34.40 29.20 38.19 40.53 43.37 43.22 40.68 42.48 33.62 35.50 27.61 25.89 33.01 34.69 36.93 41.09 43.10 45.56 44.73 45.15 48.76 53.27 54.12 54.96 55.54 55.58 55.66 56.10 55.97 55.69 55.73 55.65 56.28 56.84 57.24 57.07 56.29 56.01 55.12 53.60 53.49 54.63 54.91 54.14
37.78 33.40 32.90 38.53 37.23 36.23 37.89 36.50 36.88 36.98 35.12 29.10 28.02 34.14 44.39 43.28 43.77 44.68 46.04 47.74 48.36 49.27 51.18 53.66 54.98 56.00 56.20 56.40 56.14 55.64 55.51 55.34 55.94 56.66 56.58 57.04 57.31 57.45 56.89 55.77 54.01 53.93 54.69 53.65
38.43 35.57 30.90 34.05 40.08 42.36 40.92 38.61 38.34 33.04 31.82 34.45 33.07 33.73 46.68 46.53 46.04 45.30 47.12 47.88 48.73 50.16 50.83 51.73 53.34 55.27 56.27 56.37 55.91 55.10 55.00 55.33 55.92 56.52 56.43 56.32 57.12 57.78 57.41 56.90 56.60 55.27 53.93 53.93
35.75 32.50 28.43 30.67 36.08 39.83 37.16 39.58 40.25 39.55 37.42 33.65 31.40 34.41 47.10 47.86 47.20 47.50 46.02 47.79 48.82 49.39 49.83 50.66 51.53 51.83 52.58 53.61 56.92 56.99 56.18 55.86 56.03 55.85 55.83 55.93 56.30 56.51 56.63 57.01 57.33 56.69 55.82 54.87
39.63 34.01 32.12 28.91 33.36 37.01 35.40 38.25 39.30 37.87 33.43 33.13 33.25 37.87 43.08 44.68 44.80 46.30 45.31 47.69 48.76 48.52 48.84 49.23 49.92 50.81 51.14 51.60 51.39 52.76 54.95 56.52 56.92 56.68 55.65 55.18 55.35 56.37 56.37 56.73 56.92 57.38 57.35 56.59
36.47 29.06 34.32 35.50 36.78 36.80 37.07 36.98 37.46 36.59 36.57 33.98 36.78 38.22 43.30 45.59 44.21 46.36 47.55 47.91 47.60 46.86 48.01 48.83 48.46 47.63 47.15 46.65 47.17 47.67 48.67 50.87 52.65 57.08 56.51 56.05 56.24 56.47 56.49 56.35 56.51 57.09 57.04 57.32
37.64 29.30 33.20 31.36 35.85 35.31 34.03 38.18 38.50 37.89 39.27 38.23 39.05 39.24 46.14 47.27 47.49 46.22 47.01 46.93 45.54 45.53 46.64 47.35 46.71 45.05 43.52 43.37 43.52 44.91 46.21 47.44 50.11 49.91 49.41 56.02 57.58 57.44 56.81 56.29 56.17 56.17 56.43 56.75
34.42 32.66 28.87 26.37 33.52 32.69 29.69 35.43 38.01 39.48 41.42 40.73 37.05 41.74 45.83 44.20 44.75 44.78 45.19 44.93 44.30 44.35 45.23 44.91 43.37 41.39 40.07 39.56 40.75 41.60 43.22 45.23 44.74 45.09 45.78 47.44 48.60 52.41 56.79 57.67 56.95 55.98 55.62 56.29
32.44 30.80 29.79 26.39 29.29 21.50 35.20 39.65 40.32 40.33 41.17 42.10 42.16 43.37 45.57 45.08 45.92 47.12 45.57 43.49 42.49 43.11 42.97 41.92 40.24 38.42 37.57 37.71 38.08 39.83 40.42 40.57 40.63 40.85 41.90 43.96 45.43 48.04 48.18 49.19 52.32 56.99 57.04 56.59
36.48 31.39 26.07 23.99 24.88 29.91 33.54 38.99 38.16 38.28 36.64 42.31 40.81 43.94 46.14 46.03 43.52 40.96 43.09 42.37 41.19 40.66 41.02 39.41 37.60 36.17 35.47 35.51 36.61 37.21 36.92 36.84 37.08 38.09 39.09 40.93 42.47 42.83 43.34 44.39 45.71 47.12 47.88 55.78
34.94 32.81 26.80 25.13 23.24 20.62 33.93 40.44 43.25 42.66 33.97 42.67 43.92 43.35 43.88 43.48 35.12 36.49 39.71 38.42 37.26 37.63 37.84 36.75 35.29 33.85 32.92 33.10 34.79 34.97 34.07 34.23 34.51 36.48 37.23 37.68 37.58 37.50 38.48 40.38 41.09 43.44 44.17 45.52
26.98 26.68 25.49 24.18 22.73 27.99 38.54 41.82 43.62 30.32 34.34 42.41 42.56 42.84 42.19 38.77 38.66 37.69 37.10 35.04 35.19 34.46 34.56 35.08 33.03 30.66 30.29 31.07 32.93 32.23 32.72 32.61 35.17 35.85 35.00 33.58 33.44 33.57 35.29 35.21 38.07 40.72 41.18 40.94
27.46 26.07 24.17 26.06 23.64 21.89 40.59 41.27 35.14 39.86 42.99 42.44 41.82 41.91 39.06 37.85 36.99 35.45 34.04 32.60 31.96 31.03 31.16 31.77 30.34 29.11 29.72 30.46 31.35 30.41 30.64 33.21 33.53 32.91 31.84 30.88 30.51 31.06 31.78 32.28 32.87 36.09 36.80 35.76
29.78 33.22 29.36 29.13 27.77 38.33 39.46 39.43 42.16 43.72 41.61 41.52 41.49 41.14 39.21 36.49 34.54 33.73 31.65 30.44 29.75 28.79 28.10 28.94 27.98 27.66 28.10 29.22 30.07 29.27 30.55 31.42 30.79 29.58 28.57 29.13 28.86 28.99 29.87 29.50 29.66 31.04 33.18 32.02
36.95 39.17 34.77 34.68 37.07 37.31 38.09 39.24 39.81 39.98 37.92 38.18 39.70 38.79 37.45 34.83 33.11 31.59 30.41 28.35 26.95 26.23 25.66 27.05 26.75 25.93 26.00 27.82 28.16 29.46 30.17 29.67 28.09 27.19 26.75 27.12 26.75 26.99 27.69 28.62 29.05 28.83 28.99 29.07
36.59 36.48 34.93 36.38 37.37 38.18 38.46 38.52 39.06 37.83 37.66 35.24 34.60 35.09 33.94 31.61 29.71 28.22 26.83 25.80 24.96 24.73 25.05 25.58 25.10 25.09 25.20 26.41 26.79 28.08 29.05 29.53 27.08 26.51 25.85 25.68 25.54 25.54 25.33 26.26 27.46 28.26 29.22 29.33
35.80 31.51 30.53 31.27 37.22 35.04 36.93 38.59 38.88 35.26 32.63 32.92 31.55 29.75 30.43 29.67 27.31 26.23 25.06 24.79 23.50 23.18 23.39 23.02 23.68 24.06 24.23 25.05 25.44 26.00 27.86 26.62 25.09 24.19 23.74 22.81 22.78 22.47 23.13 23.67 23.49 26.44 27.99 29.55
MSLP
1008.19 1008.70 1008.33 1008.28 1008.00 1007.54 1006.93 1006.48 1005.94 1004.82 1004.30 1004.10 1002.98 1001.95 1000.59 1000.09 1000.11 1000.28 1000.41 1000.93 1001.52 1002.01 1002.62 1003.70 1004.65 1005.66 1006.91 1007.54 1007.90 1008.06 1008.66 1009.25 1009.67 1010.16 1010.58 1011.10 1011.45 1012.07 1012.51 1012.72 1012.80 1012.94 1013.23 1013.89
1009.17 1008.51 1008.39 1008.28 1007.83 1007.47 1006.85 1006.35 1005.91 1004.97 1004.16 1004.09 1002.91 1001.55 1000.58 999.85 999.21 999.11 999.57 1000.38 1000.90 1001.94 1002.79 1003.75 1004.72 1005.63 1006.53 1007.05 1007.62 1007.98 1008.43 1009.11 1009.60 1010.04 1010.51 1010.89 1011.17 1011.66 1012.05 1012.40 1012.63 1012.85 1013.40 1013.81
1008.93 1008.19 1008.37 1008.13 1007.68 1007.34 1006.57 1006.35 1006.07 1005.41 1004.29 1003.70 1003.26 1001.45 1000.42 999.46 998.73 998.44 998.76 999.13 1000.05 1000.79 1002.01 1003.25 1004.35 1005.05 1006.01 1006.74 1007.18 1007.63 1008.09 1008.90 1009.53 1009.99 1010.48 1010.91 1011.23 1011.56 1011.83 1012.22 1012.56 1013.01 1013.41 1013.70
1008.93 1008.23 1008.23 1008.01 1007.35 1007.01 1006.59 1006.14 1005.75 1005.02 1004.78 1004.29 1003.41 1002.16 1000.73 999.70 998.73 998.07 998.25 998.70 999.24 1000.32 1000.74 1002.08 1003.65 1004.75 1005.37 1006.22 1006.84 1007.33 1007.77 1008.56 1009.33 1009.74 1010.26 1010.63 1010.75 1011.07 1011.42 1011.86 1012.22 1012.72 1013.39 1013.61
1008.47 1008.10 1008.03 1007.78 1007.11 1006.86 1006.28 1005.87 1005.78 1005.44 1005.08 1004.74 1003.54 1003.26 1000.35 999.68 998.60 998.03 997.76 997.82 998.19 998.75 999.75 1001.21 1002.37 1003.40 1004.69 1005.75 1006.42 1007.05 1007.55 1008.19 1009.07 1009.56 1009.82 1010.27 1010.50 1010.84 1011.02 1011.55 1012.09 1012.53 1013.33 1013.52
1007.67 1007.74 1007.65 1007.01 1006.91 1006.83 1006.78 1006.20 1005.72 1005.54 1005.46 1004.74 1003.53 1003.16 1000.32 999.26 997.94 997.34 996.92 997.06 997.52 998.20 999.05 1000.19 1001.93 1003.42 1004.54 1005.59 1006.17 1006.81 1007.19 1007.78 1008.50 1009.33 1009.65 1009.96 1010.38 1010.54 1010.95 1011.43 1011.91 1012.40 1013.09 1013.28
1007.36 1007.22 1006.89 1006.78 1006.89 1006.81 1006.92 1006.87 1006.33 1005.87 1005.26 1004.36 1003.28 1002.43 1000.11 998.22 997.45 996.93 996.56 996.15 996.67 997.19 998.65 1000.19 1001.53 1002.96 1004.05 1004.94 1005.81 1006.47 1006.84 1007.33 1007.90 1008.68 1009.43 1009.69 1010.03 1010.37 1010.63 1011.07 1011.43 1012.07 1012.62 1013.14
1007.20 1006.59 1005.84 1005.83 1006.09 1006.14 1006.47 1006.98 1006.68 1006.37 1006.04 1004.71 1002.95 1000.89 998.79 997.40 996.33 996.20 996.01 995.82 995.77 996.95 998.04 999.33 1000.52 1001.87 1003.16 1004.31 1005.33 1005.91 1006.42 1006.86 1007.44 1008.02 1008.74 1009.44 1009.83 1010.21 1010.51 1010.91 1011.15 1011.57 1011.89 1012.20
1006.79 1005.96 1004.87 1004.79 1005.29 1006.12 1006.59 1006.62 1007.05 1007.41 1006.73 1005.94 1002.98 1000.66 998.59 997.91 996.46 996.02 995.81 996.18 996.25 996.93 997.85 998.97 1000.31 1001.26 1002.63 1003.68 1004.27 1004.93 1005.71 1006.33 1006.83 1007.41 1008.00 1008.82 1009.64 1010.00 1010.29 1010.65 1011.05 1011.41 1011.85 1012.23
1006.43 1005.97 1004.84 1004.38 1004.63 1004.88 1005.19 1006.59 1007.63 1007.96 1007.25 1006.04 1003.41 1001.97 1000.82 999.38 997.88 996.89 996.89 997.07 996.92 997.06 997.90 998.94 999.95 1000.80 1001.79 1002.81 1003.81 1004.74 1005.25 1005.71 1006.27 1006.98 1007.56 1008.07 1008.80 1009.64 1010.10 1010.43 1010.80 1011.14 1011.47 1011.81
1006.32 1006.49 1005.48 1004.75 1004.42 1004.78 1005.35 1006.48 1007.36 1007.45 1007.13 1006.27 1004.65 1003.41 1002.65 1001.21 999.88 998.90 998.83 998.38 998.32 998.35 999.07 999.67 1000.45 1001.31 1002.38 1003.42 1003.80 1004.34 1005.04 1005.53 1006.08 1006.56 1007.03 1007.53 1008.04 1008.60 1009.30 1009.82 1010.18 1010.57 1011.09 1011.41
1006.70 1006.66 1005.97 1004.83 1003.82 1003.77 1004.83 1005.86 1006.56 1006.94 1006.79 1006.55 1005.74 1004.80 1003.39 1002.39 1001.39 1000.80 1000.51 1000.35 999.98 999.79 1000.18 1000.42 1001.10 1001.90 1002.78 1003.82 1004.88 1005.66 1006.25 1005.97 1005.76 1006.22 1006.72 1007.06 1007.36 1007.83 1008.35 1008.85 1009.48 1010.02 1010.34 1010.69
1006.92 1007.09 1006.52 1005.07 1004.10 1003.88 1004.59 1005.08 1005.82 1006.45 1006.86 1006.39 1005.91 1004.87 1004.03 1003.33 1002.73 1002.08 1002.25 1002.24 1001.81 1001.56 1001.89 1002.21 1002.44 1003.23 1003.77 1004.43 1004.77 1005.28 1005.94 1006.51 1006.86 1007.27 1007.20 1007.08 1007.23 1007.43 1007.47 1007.83 1008.43 1008.98 1009.57 1010.03
1007.15 1007.68 1007.59 1007.11 1006.45 1006.41 1005.58 1005.51 1005.83 1006.41 1006.38 1006.11 1005.22 1004.54 1004.58 1004.54 1004.72 1003.58 1003.40 1003.29 1003.34 1003.31 1003.50 1003.91 1003.96 1004.61 1005.03 1005.52 1005.85 1006.18 1006.30 1006.42 1006.19 1006.26 1006.61 1006.89 1006.90 1006.81 1006.94 1007.18 1007.40 1007.70 1008.19 1008.70
1007.94 1008.29 1008.25 1007.82 1006.94 1006.29 1005.57 1005.58 1005.78 1005.52 1005.70 1005.40 1004.80 1004.39 1004.54 1005.07 1005.55 1005.02 1004.48 1003.66 1004.09 1004.57 1004.11 1005.05 1005.78 1006.36 1006.60 1006.99 1007.22 1007.20 1007.10 1006.75 1006.15 1005.80 1006.05 1006.22 1006.63 1006.80 1006.90 1007.08 1007.24 1007.27 1007.28 1007.31
1008.74 1009.01 1008.86 1008.25 1007.15 1006.33 1005.43 1004.89 1005.04 1005.23 1005.00 1004.89 1004.55 1004.27 1004.69 1005.20 1005.65 1005.46 1005.13 1004.74 1005.03 1004.78 1004.82 1006.40 1007.71 1007.92 1008.19 1008.10 1008.56 1008.39 1007.99 1007.63 1007.20 1007.20 1007.26 1006.47 1006.33 1006.18 1006.13 1006.31 1006.54 1006.75 1006.58 1006.61
1009.29 1009.71 1009.54 1008.91 1007.70 1006.32 1004.96 1004.03 1003.71 1003.68 1004.14 1004.48 1004.34 1004.23 1004.65 1005.36 1005.66 1006.05 1005.68 1005.48 1006.06 1006.67 1007.02 1007.88 1008.65 1009.12 1009.34 1009.49 1010.10 1009.38 1008.96 1008.68 1008.34 1007.99 1007.79 1007.49 1007.17 1006.75 1006.00 1005.83 1005.87 1005.75 1005.73 1005.83
1009.55 1009.92 1010.10 1009.66 1008.30 1006.64 1004.28 1003.38 1002.77 1002.83 1003.76 1004.07 1004.15 1004.35 1004.76 1005.20 1005.74 1006.74 1007.10 1006.22 1007.15 1007.52 1007.90 1008.88 1010.09 1010.52 1010.13 1010.29 1010.50 1010.38 1010.03 1009.72 1009.54 1009.38 1009.01 1008.43 1007.85 1007.36 1007.20 1006.66 1006.02 1005.30 1004.86 1004.73
1009.20 1009.79 1010.19 1010.07 1008.85 1006.84 1004.56 1003.49 1003.07 1003.11 1004.12 1003.68 1003.93 1004.46 1004.56 1005.41 1006.43 1008.29 1008.61 1008.52 1008.97 1009.34 1009.90 1010.79 1011.40 1011.50 1011.46 1011.58 1011.15 1010.51 1010.35 1010.61 1010.69 1010.52 1010.18 1009.67 1009.09 1008.25 1007.53 1007.06 1006.64 1006.01 1005.38 1004.23
1009.11 1009.65 1010.26 1010.22 1009.12 1007.05 1004.74 1003.62 1002.91 1002.96 1004.26 1003.77 1002.65 1004.64 1004.84 1005.45 1007.03 1009.76 1010.56 1010.95 1011.04 1011.28 1011.68 1012.05 1012.38 1012.90 1013.10 1012.63 1012.02 1011.48 1011.25 1011.10 1011.00 1010.92 1010.75 1010.48 1010.17 1009.58 1008.75 1007.99 1007.07 1006.14 1005.51 1004.56
1009.42 1009.78 1010.02 1010.00 1009.16 1007.13 1005.03 1004.08 1003.61 1004.15 1005.83 1005.02 1004.13 1005.32 1005.97 1006.93 1008.28 1010.45 1011.51 1011.97 1012.26 1012.60 1012.62 1013.17 1013.65 1013.89 1013.87 1013.45 1012.91 1012.43 1012.36 1012.13 1011.96 1011.71 1011.50 1011.19 1010.94 1010.27 1009.40 1008.72 1007.80 1006.81 1005.68 1004.57
1009.05 1009.42 1009.76 1009.75 1009.37 1008.32 1005.97 1005.03 1004.95 1005.92 1006.27 1006.21 1006.19 1006.68 1007.75 1008.69 1010.16 1011.52 1012.38 1012.83 1013.27 1013.83 1014.32 1014.55 1014.73 1014.75 1014.65 1014.19 1013.73 1013.60 1013.35 1013.21 1012.79 1012.56 1012.20 1011.74 1011.52 1010.91 1010.09 1009.31 1008.38 1007.35 1006.41 1005.65
1009.04 1008.91 1009.42 1008.95 1008.66 1008.53 1007.56 1006.98 1006.31 1006.18 1007.52 1007.81 1007.77 1008.26 1008.94 1009.99 1011.39 1012.35 1013.16 1014.10 1014.94 1015.47 1015.65 1015.43 1015.46 1015.46 1015.29 1014.87 1014.53 1014.16 1014.04 1013.72 1013.53 1013.38 1013.14 1012.85 1012.54 1011.82 1010.97 1010.09 1009.24 1008.37 1007.47 1006.93
1009.17 1009.13 1009.25 1008.95 1009.08 1008.99 1008.53 1008.43 1008.20 1008.59 1008.86 1009.32 1009.63 1010.07 1010.52 1011.30 1012.52 1013.48 1014.31 1015.34 1015.83 1016.02 1016.00 1015.84 1015.94 1015.91 1015.71 1015.44 1015.19 1014.81 1014.50 1014.35 1014.18 1013.97 1013.85 1013.63 1013.27 1012.89 1012.26 1011.37 1010.72 1010.10 1009.31 1008.57
1009.82 1009.82 1009.88 1009.37 1009.64 1009.84 1009.92 1009.79 1010.03 1010.53 1010.26 1010.65 1011.15 1011.87 1012.40 1012.53 1013.59 1014.48 1015.04 1016.15 1016.59 1016.38 1016.59 1016.55 1016.57 1016.54 1016.47 1016.22 1015.85 1015.48 1015.12 1014.76 1014.78 1014.83 1014.80 1014.64 1014.44 1014.11 1013.70 1013.18 1012.60 1012.20 1011.63 1010.86
1011.24 1011.47 1011.09 1010.58 1010.30 1010.72 1010.87 1011.19 1011.22 1011.00 1011.81 1012.21 1012.70 1013.61 1014.05 1014.00 1014.81 1015.39 1016.03 1017.10 1017.71 1017.94 1017.99 1017.79 1017.84 1017.63 1017.46 1017.07 1016.61 1016.20 1015.75 1015.57 1015.48 1015.65 1015.79 1015.72 1015.50 1015.22 1014.83 1014.53 1014.21 1014.20 1013.88 1013.15
Wind_Speed
1 3 12 10 7 6 7 9 9 13 8 9 15 19 11 16 9 10 9 11 16 19 11 10 14 15 13 12 12 13 11 8 7 6 7 6 8 7 6 6 10 11 8 8
1 9 9 9 9 10 9 9 14 17 10 6 16 11 14 14 13 14 13 9 15 10 11 13 14 14 15 16 14 13 12 11 7 6 5 3 4 4 7 7 7 9 9 9
5 3 6 12 12 11 8 10 12 14 15 12 11 10 15 11 6 6 9 10 13 20 18 15 16 16 14 16 15 14 15 12 9 7 4 3 3 3 4 7 8 8 5 8
5 3 7 8 10 7 9 12 16 19 11 5 3 8 19 12 9 5 7 9 11 17 19 18 17 16 16 14 13 14 15 14 9 8 7 10 8 6 5 7 8 10 8 6
4 2 5 9 14 10 11 7 5 5 5 3 6 7 13 6 8 11 8 10 14 22 22 21 20 19 15 14 14 13 15 15 12 10 11 8 7 6 6 7 12 10 7 7
7 3 4 8 11 7 11 7 5 5 4 4 9 6 8 6 11 5 8 5 13 18 21 19 14 14 14 12 13 13 15 15 15 12 12 14 12 9 9 9 9 9 9 6
3 14 6 4 4 8 8 2 1 3 3 6 5 8 14 13 11 11 11 14 14 21 19 17 17 17 16 18 15 13 14 16 16 14 13 12 12 11 13 11 10 13 10 7
4 7 11 10 9 9 11 7 5 6 1 3 12 7 7 10 13 12 12 9 12 18 19 20 19 17 17 18 16 15 15 16 16 16 15 11 11 8 8 10 8 7 9 11
2 4 2 11 7 10 6 7 3 4 2 1 5 6 7 11 12 8 9 5 14 16 18 19 17 15 16 17 19 17 16 15 16 16 14 13 9 11 10 9 7 7 5 6
4 4 6 6 6 5 7 4 4 4 3 4 4 2 2 16 14 10 8 7 4 11 15 15 15 15 14 15 14 14 15 16 16 15 13 13 13 11 9 8 10 10 9 7
3 3 6 4 8 12 4 4 3 1 2 1 1 2 12 13 15 15 17 17 15 13 8 6 5 4 3 6 10 13 13 13 13 14 13 14 14 14 13 12 12 12 11 10
1 1 4 7 9 4 9 9 7 3 5 4 2 4 9 9 13 13 16 14 16 19 19 16 12 11 8 8 6 3 3 7 11 13 13 13 14 15 13 14 13 13 13 12
2 2 4 7 3 3 4 10 13 5 2 5 2 3 1 12 15 16 10 11 15 17 18 18 20 17 15 13 5 5 6 4 5 6 9 11 13 14 16 16 14 14 14 14
4 1 2 3 4 3 7 6 8 9 3 2 5 3 8 5 15 12 5 8 14 16 16 15 16 15 15 14 13 13 10 5 6 11 11 12 14 15 14 14 15 16 16 16
3 1 2 7 12 12 13 8 12 17 13 7 4 11 5 6 5 10 11 10 14 13 19 17 15 13 13 13 12 11 11 11 13 2 11 13 12 12 12 13 15 15 17 17
4 1 3 4 5 8 7 13 12 13 16 14 13 10 3 9 2 5 8 12 13 14 19 17 15 15 12 13 11 11 11 12 11 13 12 7 11 13 14 14 14 15 17 18
2 1 2 4 7 9 6 3 10 8 7 10 5 3 9 5 6 5 2 11 15 15 14 14 14 14 13 13 11 10 11 11 13 13 13 13 12 11 9 13 15 17 19 16
3 2 2 4 5 3 5 13 11 13 9 8 7 6 12 10 11 2 7 14 13 14 15 15 12 12 14 12 11 8 10 11 12 12 14 14 14 11 11 11 9 14 17 18
9 4 2 3 3 7 10 4 6 4 3 7 8 11 21 11 21 15 13 15 14 15 13 13 11 12 12 13 13 12 12 11 11 14 14 15 14 15 15 13 12 11 11 14
6 4 4 2 2 4 3 6 14 6 2 10 7 19 21 17 9 7 11 13 16 15 13 11 12 11 10 12 12 12 14 14 15 16 15 14 14 13 13 14 15 14 13 14
4 2 10 4 3 7 6 2 6 2 2 5 14 12 8 8 9 13 11 13 14 13 14 11 10 10 11 11 10 12 13 15 14 14 13 13 14 14 13 13 11 12 12 9
5 4 3 4 3 8 11 7 6 4 3 9 12 15 17 17 15 13 12 14 14 13 11 10 9 10 10 11 11 12 12 11 12 12 12 13 14 12 10 12 11 10 9 7
3 4 2 6 5 6 13 11 12 10 12 8 9 12 13 14 13 12 12 12 11 10 9 9 9 10 10 11 12 12 12 11 10 10 11 11 12 14 13 13 14 10 9 7
4 1 3 3 7 9 12 15 18 14 15 14 13 12 12 14 12 12 12 10 9 10 10 9 10 11 12 12 12 11 11 9 10 11 12 10 11 14 16 11 11 10 9 8
2 1 4 3 11 11 12 12 14 13 14 16 18 16 12 14 14 13 12 12 11 11 11 11 11 12 13 12 13 13 11 9 9 11 10 10 9 10 11 15 16 13 16 13
5 3 2 2 5 9 8 9 9 12 14 14 14 14 14 15 14 13 13 12 11 11 11 11 13 12 12 12 13 14 13 11 10 11 8 8 8 8 8 8 11 30 32 31
Wind_Direction
287 140 219 217 232 216 262 267 277 286 291 322 284 280 268 277 229 237 213 185 187 192 173 151 149 146 148 151 153 150 154 162 158 164 164 171 171 179 183 189 191 171 159 159
335 245 239 234 256 253 244 261 274 286 291 261 288 280 286 282 253 212 197 191 190 157 156 153 155 155 162 159 159 156 158 168 171 171 174 155 158 182 193 183 189 178 177 186
201 242 266 230 244 254 256 253 261 267 295 288 295 296 293 281 250 203 214 205 186 172 169 164 168 169 160 166 164 160 158 160 172 167 140 113 129 132 165 180 175 175 190 189
234 264 231 257 236 214 265 250 260 262 263 271 37 290 284 278 287 298 228 213 176 182 180 168 167 173 173 170 162 157 157 158 166 165 171 185 199 180 190 183 177 177 193 200
244 218 173 227 244 244 255 319 314 341 320 291 276 259 273 249 284 273 265 223 195 182 177 176 178 176 170 164 166 161 157 159 165 172 176 180 182 183 163 173 173 171 183 197
236 201 208 221 259 267 301 324 262 216 176 242 243 222 272 236 241 268 260 233 196 183 180 178 163 156 160 164 163 163 161 162 163 172 174 178 181 182 167 164 162 169 188 182
278 236 193 172 220 246 241 312 258 258 210 225 226 225 239 266 255 244 265 279 201 181 166 161 157 162 165 172 169 168 167 167 166 170 180 183 177 179 179 174 173 174 184 189
194 308 190 172 203 190 217 194 164 201 269 303 208 236 249 239 254 245 252 273 175 167 163 167 171 166 168 170 172 174 174 170 171 172 179 186 179 183 181 189 183 177 188 191
253 266 95 168 180 179 200 198 270 6 223 260 267 299 312 337 267 262 266 116 161 163 166 167 173 168 163 173 179 178 175 174 175 177 178 180 185 190 191 185 186 191 177 200
279 290 248 201 168 211 184 120 147 177 210 206 249 285 322 349 355 41 33 70 85 164 166 167 167 173 175 178 175 178 181 180 176 177 181 183 183 194 201 190 199 201 202 194
24 181 287 3 194 194 237 157 159 265 219 247 289 133 360 8 15 56 68 66 63 70 78 111 106 103 87 141 172 177 181 178 180 182 182 185 191 194 198 204 204 204 205 201
224 248 263 241 251 179 159 183 173 183 178 206 275 273 320 338 26 33 55 57 60 67 65 62 70 70 94 110 119 126 271 213 189 185 186 194 191 196 199 202 205 205 210 205
284 323 320 319 306 121 159 203 204 179 58 220 176 179 26 352 3 7 43 61 68 70 63 66 70 69 66 57 106 157 161 208 218 225 212 201 203 204 204 204 201 199 207 215
101 196 269 273 341 284 293 153 220 191 188 198 226 195 128 67 358 349 73 58 80 83 77 69 67 64 57 49 43 43 41 354 263 197 207 216 218 216 216 214 209 207 209 212
86 187 24 291 280 279 292 222 259 232 223 208 238 231 161 134 118 302 318 91 84 80 82 68 63 59 54 48 35 24 20 0 356 205 210 219 223 227 227 225 226 224 217 216
358 277 17 284 351 326 286 238 217 246 237 229 244 247 71 99 195 266 317 97 79 60 68 69 56 54 48 42 30 22 15 7 6 20 17 340 237 224 225 228 228 228 228 226
123 278 40 278 330 302 285 207 244 197 230 229 254 223 120 119 166 282 75 90 89 77 70 66 52 42 41 44 26 22 18 8 13 12 4 2 356 359 276 239 226 228 231 230
181 141 101 267 320 274 278 318 259 189 178 204 194 232 184 173 155 205 107 87 71 66 58 59 54 40 24 21 23 32 30 24 16 14 2 354 345 349 344 335 324 255 235 227
198 154 177 210 212 294 299 357 343 179 37 294 220 194 147 147 93 63 60 67 72 68 65 68 53 38 29 18 7 15 24 25 21 13 3 354 351 340 336 329 325 311 306 272
178 157 148 169 230 255 269 325 4 360 91 326 144 173 163 145 105 101 81 74 69 64 60 66 52 39 26 16 10 21 19 11 7 1 357 357 351 341 329 328 318 311 301 289
142 174 210 211 250 286 276 299 33 28 128 353 86 98 99 89 96 114 94 74 69 66 53 56 55 45 29 15 15 28 18 12 357 354 357 3 358 344 339 327 319 313 315 323
172 161 179 173 220 266 334 310 139 138 39 94 81 97 99 96 97 95 84 70 63 61 60 57 56 50 34 29 31 32 25 5 8 9 8 7 5 359 352 344 338 337 342 12
221 182 233 171 206 76 34 50 39 91 113 79 93 96 108 104 98 89 81 75 65 61 54 56 54 52 39 35 32 34 18 16 21 27 25 23 20 15 9 8 0 355 12 27
222 183 233 331 67 78 70 57 54 56 71 62 63 85 100 101 94 90 83 64 61 53 46 47 50 47 42 34 33 31 26 30 37 40 35 31 31 31 29 29 25 18 14 29
2 32 332 137 110 89 69 65 58 52 66 66 59 55 74 92 81 80 70 57 47 45 36 36 38 41 37 33 37 35 29 34 50 47 42 37 35 35 38 41 36 37 36 38
15 326 330 26 42 97 67 70 80 72 58 63 65 54 50 63 71 71 64 57 50 45 38 40 38 41 30 29 33 32 32 39 48 53 41 36 38 35 40 40 47 41 40 43